GALILEO 33 (139)

导读

GALILEO 33 (139)是德国于2025年12月17日发射的伽利略系列导航卫星,运行在高度约23220公里、倾角56度的近圆中地球轨道,轨道周期约14小时8分钟,偏心率小于0.001。作为欧洲伽利略全球卫星导航系统的组网卫星,它将提升系统覆盖范围与定位精度,为民用、商用领域提供可靠的全球定位、导航与授时服务,增强欧洲独立导航系统的服务稳定性。

Basic Information
目录编号:
67162
目录名称:
GALILEO 34 (139)
国际标识:
2025-302C
轨道中心:
EARTH
卫星名称:
GALILEO 33 (139)
卫星全名:
GALILEO 33 (139)
卫星状态:
在轨 (已飞行223 天)
发射日期:
2025-12-17 UTC
国别 :
(ESA)
星等 :
--
Orbit Information
数据来源 国际轨道数据 AOE轨道数据
星历时间 2026-07-24T19:05:14+0800
3天前
查看轨道信息
2026-07-24T08:00:00+0800
4天前
查看轨道信息
半长轴 29600.309km 29600.378km
偏心率 0.000175 0.0001606
轨道倾角 54.359° 54.358°
近地点辐角 316.431° 322.961°
升交点赤经 101.068° 101.081°
平近点角 216.655° 286.598°
近地点 23216.991km 23217.487km
远地点 23227.353km 23226.995km
周期 844.703分钟 844.706分钟
每日圈数 1.704741 1.704735
Detailed Information
使用方式:
暂无
2D Orbit Map
3D Orbit Map
Orbit Altitude Analysis Chart
Orbit Inclination Analysis Chart
Orbit Comprehensive Analysis Chart
View Comprehensive Chart